This is the latest recevied weather packets stored in our database for station/object FW7644. If no packets are shown the sender has not sent any weather packets the latest 10 day(s).
| Time | Temp. | Humidity | Pressure | Rain* | Wind** | Luminosity | Snow |
|---|---|---|---|---|---|---|---|
| 1777495225 | 14.44° C | 99% | 1017.1 hPa | 2.79 mm | - | - | - |
| 1777494924 | 14.44° C | 99% | 1017 hPa | 2.79 mm | - | - | - |
| 1777494622 | 15° C | 99% | 1016.7 hPa | 2.54 mm | - | - | - |
| 1777494320 | 15° C | 99% | 1016.9 hPa | 2.03 mm | - | - | - |
| 1777494019 | 15° C | 99% | 1016.8 hPa | 2.03 mm | - | - | - |
| 1777493716 | 15° C | 99% | 1016.7 hPa | 1.52 mm | - | - | - |
| 1777493415 | 15° C | 99% | 1016.7 hPa | 1.52 mm | - | - | - |
| 1777493113 | 15° C | 99% | 1017.1 hPa | 1.27 mm | - | - | - |
| 1777492811 | 15° C | 99% | 1017.4 hPa | 0.51 mm | - | - | - |
| 1777492509 | 15° C | 99% | 1016.9 hPa | 0.51 mm | - | - | - |
| 1777492208 | 15° C | 99% | 1016.8 hPa | 0.25 mm | - | - | - |
| 1777491906 | 15° C | 99% | 1016.9 hPa | 0.25 mm | - | - | - |
| 1777491604 | 15° C | 99% | 1016.8 hPa | 0.25 mm | - | - | - |
| 1777491302 | 15° C | 99% | 1016.9 hPa | 0.76 mm | - | - | - |
| 1777491001 | 15° C | 98% | 1016.7 hPa | 0.51 mm | - | - | - |
| 1777490699 | 15° C | 98% | 1016.7 hPa | 0.76 mm | - | - | - |
| 1777490397 | 15° C | 98% | 1016.5 hPa | 1.02 mm | - | - | - |
| 1777490096 | 15° C | 98% | 1016.6 hPa | 1.02 mm | - | - | - |
| 1777489793 | 15° C | 98% | 1016.6 hPa | 1.78 mm | - | - | - |
| 1777489492 | 15° C | 98% | 1016.4 hPa | 1.78 mm | - | - | - |
| 1777489190 | 15° C | 98% | 1016.8 hPa | 1.78 mm | - | - | - |
| 1777488888 | 15° C | 98% | 1016.7 hPa | 1.78 mm | - | - | - |
| 1777488586 | 15° C | 98% | 1016.8 hPa | 1.78 mm | - | - | - |
| 1777488284 | 15° C | 98% | 1016.9 hPa | 1.78 mm | - | - | - |
| 1777487982 | 15° C | 98% | 1017.1 hPa | 2.03 mm | - | - | - |
* Rain latest hour (hover to see other rain measurements)
** Current wind speed in m/s (hover to see current wind gust speed)